Terminal Aerodrome Forecast
Issued by NWS Omaha/Valley, NE

Home | Current Version | Previous Version | Text Only | Print | Product List | Glossary On
Versions: 1 2 3 4 5 6 7 8 9 10 11 12 13 14 15 16 17 18 19 20 21 22 23 24 25 26 27 28 29 30 31 32 33 34 35 36 37 38 39 40 41 42 43 44 45 46 47 48 49 50
000
FTUS43 KOAX 250327 AAC
TAFOMA
TAF AMD
KOMA 250327Z 2503/2524 20004KT P6SM BKN035
     FM250600 19004KT P6SM SCT015 OVC050
      TEMPO 2506/2510 5SM -SHRA BR BKN015
     FM251000 17005KT 4SM BR OVC009
     FM251500 17007KT P6SM OVC025
     FM251900 18011KT P6SM OVC035=

USA.gov is the U.S. government's official web portal to all federal, state and local government web resources and services.